This is the latest recevied weather packets stored in our database for station/object KG4LKY-5. If no packets are shown the sender has not sent any weather packets the latest 10 day(s).
| Time | Temp. | Humidity | Pressure | Rain* | Wind** | Luminosity | Snow |
|---|---|---|---|---|---|---|---|
| 1777301007 | 21.11° C | 72% | 1019.1 hPa | 0 mm | - | - | - |
| 1777300707 | 21.67° C | 74% | 1019 hPa | 0 mm | - | - | - |
| 1777300406 | 20.56° C | 77% | 1018.9 hPa | 0 mm | - | - | - |
| 1777299805 | 19.44° C | 80% | 1018.9 hPa | 0 mm | - | - | - |
| 1777299505 | 20° C | 81% | 1018.8 hPa | 0 mm | - | - | - |
| 1777299205 | 18.89° C | 83% | 1018.9 hPa | 0 mm | - | - | - |
| 1777298904 | 18.89° C | 85% | 1018.8 hPa | 0 mm | - | - | - |
| 1777298604 | 18.89° C | 84% | 1018.7 hPa | 0 mm | - | - | - |
| 1777298303 | 18.89° C | 86% | 1018.7 hPa | 0 mm | - | - | - |
| 1777298003 | 18.89° C | 83% | 1018.6 hPa | 0 mm | - | - | - |
| 1777297702 | 19.44° C | 87% | 1018.6 hPa | 0 mm | - | - | - |
| 1777297102 | 18.33° C | 90% | 1018.6 hPa | 0 mm | - | - | - |
| 1777296501 | 17.78° C | 96% | 1018.6 hPa | 0 mm | - | - | - |
| 1777295899 | 17.78° C | 97% | 1018.8 hPa | 0 mm | - | - | - |
| 1777294997 | 16.67° C | 100% | 1018.8 hPa | 0 mm | - | - | - |
| 1777294696 | 15.56° C | 100% | 1018.7 hPa | 0 mm | - | - | - |
| 1777294394 | 15° C | 100% | 1018.7 hPa | 0 mm | - | - | - |
| 1777293493 | 13.33° C | 100% | 1018.8 hPa | 0 mm | - | - | - |
| 1777293191 | 13.33° C | 100% | 1018.8 hPa | 0 mm | - | - | - |
| 1777292289 | 10.56° C | 100% | 1018.9 hPa | 0 mm | - | - | - |
| 1777291386 | 8.89° C | 100% | 1018.9 hPa | 0 mm | - | - | - |
| 1777291086 | 8.89° C | 100% | 1018.9 hPa | 0 mm | - | - | - |
| 1777290786 | 9.44° C | 100% | 1018.8 hPa | 0 mm | - | - | - |
| 1777290185 | 8.89° C | 100% | 1018.7 hPa | 0 mm | - | - | - |
| 1777289885 | 8.89° C | 100% | 1018.7 hPa | 0 mm | - | - | - |
* Rain since midnight (hover to see other rain measurements)
** Current wind speed in m/s (hover to see current wind gust speed)